Location: Paris
(18.5000°N, 73.9167°W)
Time: 13:15:55
(UTC+00:00)

DELTA 2 R/B (1) - Visible Passes

Search period start: 12 July 2024 00:00
Search period end: 22 July 2024 00:00
Orbit: 789 x 800 km, 39.6° (Epoch: 11 July)

Date Brightness Start Highest point End Pass type
(mag) Time Alt. Az. Time Alt. Az. Time Alt. Az.
12 Jul 5.7 07:58:57 15° NNW 07:59:42 16° NNW 08:02:58 10° NNE visible
13 Jul 5.8 07:28:53 17° NNW 07:28:53 17° NNW 07:31:42 10° NNE visible
14 Jul 6.1 06:58:49 15° N 06:58:49 15° N 07:00:25 10° NNE visible
15 Jul 6.5 06:28:42 11° NNE 06:28:42 11° NNE 06:29:07 10° NNE visible
19 Jul 6.1 09:39:34 10° NNW 09:43:20 18° NNE 09:47:06 10° ENE visible
20 Jul 6.2 09:08:15 10° NNW 09:11:48 17° NNE 09:15:20 10° ENE visible
21 Jul 4.9 01:24:19 10° SSW 01:26:43 24° SSW 01:26:43 24° SSW visible
21 Jul 6.2 08:36:58 10° NNW 08:40:15 16° NNE 08:43:31 10° ENE visible
